Weather History for Sioux Falls, SD

Change the Weather History Date:

Tuesday, November 5, 2013

  Actual Average Record
Temperature  
Mean Temperature 31 °F 39 °F  
Max Temperature 37 °F 49 °F 75 °F (2001)
Min Temperature 25 °F 28 °F -2 °F (1951)
Degree Days  
Heating Degree Days 34 26  
Month to date heating degree days 118 126  
Since 1 July heating degree days 753 866  
Cooling Degree Days 0 0  
Month to date cooling degree days 0 0  
Year to date cooling degree days 787 690  
Moisture  
Dew Point 28 °F    
Average Humidity 82    
Maximum Humidity 100    
Minimum Humidity 64    
Precipitation  
Precipitation 0.38 in 0.05 in 1.37 in (1905)
Month to date precipitation 0.41 0.23  
Year to date precipitation 24.61 24.56  
Snow  
Snow 5.70 in 0.20 in 5.70 in (2013)
Month to date snowfall 5.7 0.8  
Since 1 July snowfall 6.1 2.1  
Since 1 September snowfall 6.1 2.1  
Snow Depth 5.00 in    
Sea Level Pressure  
Sea Level Pressure 30.14 in    
Wind  
Wind Speed 8 mph (NNE)    
Max Wind Speed 23 mph    
Max Gust Speed 29 mph    
Visibility 4 miles    
Events Fog , Snow    
T = Trace of Precipitation, MM = Missing Value Source: NWS Daily Summary

Daily Weather History Graph

Daily Weather History Graph

Search for Another Location

Airport:

Trip Planner

Search our weather history database for the weather conditions in past years. The results will help you decide how hot, cold, wet, or windy it might be!

Date:

Astronomy

Nov. 05, 2013 Rise Set
Actual Time 7:08 AM CST 5:12 PM CST
Civil Twilight 6:38 AM CST 5:42 PM CST
Nautical Twilight 6:03 AM CST 6:16 PM CST
Astronomical Twilight 5:30 AM CST 6:50 PM CST
Moon 9:27 AM CST (11/5) 7:12 PM CST (11/5)
Length of Visible Light 11h 04m
Length of Day
10h 04m
Waxing Crescent, 7% of the Moon is Illuminated
Nov 5
Waxing Crescent
Nov 9
First Quarter
Nov 17
Full
Nov 25
Last Quarter
Dec 2
New

Hourly Weather History & Observations

Time (CST) Temp. Windchill Dew Point Humidity Pressure Visibility Wind Dir Wind Speed Gust Speed Precip Events Conditions
12:56 AM 28.9 °F - 26.1 °F 89% 30.20 in 10.0 mi Calm Calm - N/A   Clear
1:56 AM 27.0 °F - 25.0 °F 92% 30.19 in 10.0 mi Calm Calm - N/A   Clear
2:56 AM 30.0 °F 26.5 °F 26.1 °F 85% 30.20 in 10.0 mi NNE 3.5 mph - N/A   Overcast
3:56 AM 30.0 °F - 27.0 °F 88% 30.20 in 10.0 mi Calm Calm - N/A   Overcast
4:56 AM 30.9 °F - 28.0 °F 89% 30.21 in 10.0 mi Calm Calm - N/A   Overcast
5:56 AM 30.9 °F 26.2 °F 28.0 °F 89% 30.21 in 10.0 mi ENE 4.6 mph - N/A   Overcast
6:56 AM 30.9 °F - 28.0 °F 89% 30.20 in 10.0 mi Calm Calm - N/A   Overcast
7:56 AM 32.0 °F - 28.0 °F 85% 30.22 in 10.0 mi Calm Calm - N/A   Overcast
8:56 AM 34.0 °F 31.0 °F 28.9 °F 82% 30.24 in 10.0 mi North 3.5 mph - N/A   Overcast
9:56 AM 36.0 °F 29.0 °F 28.0 °F 73% 30.22 in 10.0 mi NNE 9.2 mph - N/A   Overcast
10:56 AM 37.0 °F 31.0 °F 26.1 °F 65% 30.24 in 10.0 mi ENE 8.1 mph - N/A   Overcast
11:56 AM 37.0 °F 29.8 °F 26.1 °F 65% 30.20 in 10.0 mi NNE 10.4 mph - N/A   Overcast
12:29 PM 37.4 °F 30.3 °F 26.6 °F 65% 30.14 in 2.0 mi ENE 10.4 mph - 0.00 in Snow Light Snow
12:37 PM 35.6 °F 28.0 °F 26.6 °F 70% 30.14 in 1.0 mi NE 10.4 mph - 0.00 in Snow Light Snow
12:41 PM 35.6 °F 27.1 °F 26.6 °F 70% 30.13 in 0.8 mi NE 12.7 mph - 0.00 in Snow Light Snow
12:56 PM 33.1 °F 24.4 °F 28.9 °F 85% 30.18 in 0.8 mi NE 11.5 mph - 0.00 in Snow Light Snow
1:56 PM 32.0 °F 23.0 °F 30.0 °F 92% 30.14 in 0.5 mi NE 11.5 mph - 0.08 in Fog , Snow Snow
2:13 PM 32.0 °F 21.6 °F 30.2 °F 93% 30.07 in 0.5 mi NNE 15.0 mph - 0.01 in Snow Light Snow
2:38 PM 32.0 °F 22.5 °F 30.2 °F 93% 30.06 in 0.5 mi NNE 12.7 mph - 0.03 in Fog , Snow Snow
2:56 PM 32.0 °F 23.0 °F 30.9 °F 96% 30.11 in 0.5 mi NE 11.5 mph - 0.05 in Fog , Snow Snow
3:38 PM 32.0 °F 24.2 °F 30.2 °F 93% 30.05 in 0.5 mi NNE 9.2 mph - 0.07 in Fog , Snow Snow
3:56 PM 32.0 °F 23.0 °F 30.0 °F 92% 30.10 in 0.5 mi NNE 11.5 mph - 0.10 in Fog , Snow Snow
4:18 PM 30.2 °F 20.8 °F 30.2 °F 100% 30.04 in 0.5 mi NNE 11.5 mph - 0.03 in Fog , Snow Snow
4:44 PM 30.2 °F 21.9 °F 30.2 °F 100% 30.05 in 0.5 mi NNE 9.2 mph - 0.06 in Snow Light Snow
4:56 PM 30.9 °F 23.5 °F 30.0 °F 96% 30.11 in 0.8 mi North 8.1 mph - 0.07 in Snow Light Snow
5:02 PM 30.2 °F 21.9 °F 30.2 °F 100% 30.06 in 0.8 mi NNE 9.2 mph - 0.00 in Snow Light Snow
5:56 PM 32.0 °F 23.6 °F 30.0 °F 92% 30.11 in 1.0 mi North 10.4 mph - 0.03 in Snow Light Snow
6:27 PM 32.0 °F 22.1 °F 30.2 °F 93% 30.06 in 1.5 mi North 13.8 mph - 0.02 in Snow Light Snow
6:56 PM 30.9 °F 20.7 °F 28.9 °F 92% 30.12 in 1.8 mi North 13.8 mph - 0.03 in Snow Light Snow
7:48 PM 30.2 °F 18.9 °F 28.4 °F 93% 30.07 in 1.0 mi North 16.1 mph 21.9 mph 0.00 in Snow Light Snow
7:56 PM 30.9 °F 20.7 °F 28.9 °F 92% 30.12 in 1.0 mi North 13.8 mph - 0.00 in Snow Light Snow
8:56 PM 30.0 °F 16.6 °F 28.0 °F 92% 30.12 in 1.0 mi North 23.0 mph 28.8 mph 0.02 in Snow Light Snow
9:30 PM 30.2 °F 18.9 °F 28.4 °F 93% 30.08 in 1.5 mi North 16.1 mph - 0.00 in Snow Light Snow
9:45 PM 30.2 °F 18.9 °F 28.4 °F 93% 30.09 in 2.0 mi North 16.1 mph - 0.00 in Snow Light Snow
9:56 PM 30.0 °F 19.1 °F 28.0 °F 92% 30.14 in 2.0 mi North 15.0 mph 21.9 mph 0.00 in Snow Light Snow
10:13 PM 30.2 °F 19.8 °F 28.4 °F 93% 30.09 in 2.0 mi North 13.8 mph - 0.00 in Snow Light Snow
10:56 PM 30.0 °F 20.0 °F 28.9 °F 96% 30.14 in 2.0 mi NNW 12.7 mph - 0.00 in Snow Light Snow
11:12 PM 30.2 °F 20.2 °F 28.4 °F 93% 30.09 in 2.5 mi NNW 12.7 mph - 0.00 in Snow Light Snow
11:56 PM 30.9 °F 21.2 °F 28.9 °F 92% 30.15 in 3.0 mi North 12.7 mph - 0.00 in Snow Light Snow